Location: Allaines
(49.9632°N, 2.9458°E)
Time: 07:41:13
(UTC+00:00)

ATLAS CENTAUR R/B - Pass Details

Date: 09 April 2020
Orbit: 466 x 681 km, 64.7° (Epoch: 20 May)

Event Time Altitude Azimuth Distance (km) Brightness Sun altitude
Rises 21:53:49 0° 316° (NW) 2,661 6.0 -26.8°
Reaches altitude 10° 21:56:07 10° 310° (NW) 1,735 4.7 -27.0°
Enters shadow 21:58:19 29° 291° (WNW) 944 2.9 -27.2°
